Find Local Weather

World > North America > United States > North Carolina

Ahoskie, North Carolina Regional Weather

Lat: 36.29N, Lon: 76.99W
Wx Zone: NCZ013
Feedback
Expires:201811171200;;437823
ASUS42 KMHX 171125
RWRMHX
WEATHER ROUNDUP FOR EASTERN NORTH CAROLINA
NATIONAL WEATHER SERVICE NEWPORT/MOREHEAD CITY NC
600 AM EST SAT NOV 17 2018

NOTE: "FAIR" INDICATES FEW OR NO CLOUDS BELOW 12,000 FEET
WITH NO SIGNIFICANT WEATHER AND/OR OBSTRUCTIONS TO VISIBILITY


NCZ011>013-027>030-043-044-078>080-089-090>093-098-171200-
COASTAL PLAIN
  
CITY           SKY/WX    TMP DP  RH WIND       PRES   REMARKS
AHOSKIE        FAIR      31  31 100 CALM      30.22R                  
CLINTON        FAIR      35  35 100 CALM      30.22R                  
ELIZABETHTOWN  FAIR      36  35  96 CALM      30.22R                  
GOLDSBORO      FAIR      35  33  92 CALM      30.20R                  
GREENVILLE     LGT SNOW  32  32 100 CALM      30.23R VSB 3/4          
HAVELOCK       FAIR      40  39  97 CALM      30.21R                  
KENANSVILLE    FAIR      32  32 100 CALM      30.22R FOG              
KINSTON        FOG       33  33 100 CALM      30.22R VSB 1            
NEW BERN       FAIR      36  36 100 CALM      30.22R                  
RICHLANDS      FAIR      32  32 100 CALM      30.22R                  
ROCKY MOUNT    FAIR      35  34  96 CALM      30.21R                  
WASHINGTON     FAIR      34  33  96 CALM      30.22R                  
WHITEVILLE     FAIR      36  35  96 CALM      30.21R                  

$$


SKY/WX - Weather  TMP - Temperature  DP - Dew Point  RH - Relative Humidity
WIND - Wind Direction/Speed PRES - Barometric Pressure